FREGAT R/B, 41106

Orbit data source: Space-Track

FREGAT R/B, 41106 is space debris in GEO originally from a launch on Fri, 11 Dec 2015 UTC launched from the Tyuratam Missile And Space Complex (TTMTR). Debris objects in space refer to the collection of defunct objects orbiting the Earth. Examples of debris include non-operational satellites, rocket bodies, and fragments generated from explosions, collisions, or faulty payload assembly.

Not visible in the next 10 days
Identifier
41106, 2015-074B
Orbit
GEO
Country
Flag of CISCIS
Related business
Manufacturer
Lavochkin
Mission
Spacecraft
Bus & Motor
FREGAT, Unknown motor
Mass
1,000 kg wet, 1,000 kg dry
Launch date (UTC)
2015-12-11 (11 years ago)
Launch vehicle
Unknown
Launch site
Tyuratam Missile And Space Complex (TTMTR)
Object type
Payload
Rocket body
Debris
Shape & HBR
Cyl, 1.6 m
Radar Cross Section
8.683 m², Medium (>0.1 m² and < 1m²)

Expand to show TLE details & history
Last TLE update: 3 days ago

TLE from 3 days ago
0 FREGAT R/B
1 41106U 15074B   26170.45721130 -.00000017  00000-0  00000-0 0  9997
2 41106   8.1298  61.8166 0199284 358.9371   0.9378  1.02892762 39533
Epoch: 2026-06-19T10:58Z
TLE epoch observation values (Epoch: 2026-06-19T10:58:23.056Z)
Latitude
0.00001°
Longitude
-10.54488°
Altitude
34,239.43 km
Speed
3.164 km/s
True Right ascension
04h 06m 56s
True Declination
0° 00' 00"
Sunlit
Object was in daylight at epoch
Visualization orbit readout
Latitude
Unknown
Longitude
Unknown
Altitude
Unknown
Speed
Unknown
Apparent Right ascension
Unknown
Apparent Declination
Unknown
Sunlit
N/A
Visualization observer readout
Local Sidereal Time
00:51:15
Azimuth
Unknown
Elevation
Unknown
Doppler factor
Unknown
Orbital elements
Apogee altitude
35,894.504 km
Perigee altitude
34,242.572 km
Semi-major axis
41,446.675 km
Eccentricity
0.01993
Inclination
8.1298°
RAAN
61.8166°
Arg. of periapsis
358.9371°
True anomaly
0.97613°
Mean anomaly
0.9378°
Eccentric anomaly
0.95687°
Mean motion
0.25722 °/min
Orbital period
1,399.57 mins
BSTAR
0
Loading maneuver chart data...
Computing Atmospheric mass density...
Loading historical data...
Loading historical data...
Loading historical data...
Loading historical data...
Loading historical data...
Loading historical data...
Loading historical data...

Documentation

Showing up to 5 results
|